Regional Weather Roundup
Issued by NWS

Home | Current Version | Previous Version | Text Only | Print | Product List | Glossary On
Versions: 1 2 3 4 5 6 7 8 9 10 11 12 13 14 15 16 17 18 19 20 21 22 23 24 25 26 27 28 29 30 31 32 33 34 35 36 37 38 39 40 41 42 43 44 45 46 47 48 49 50
000
ASUS44 KLUB 010801
RWRTX
WEST TEXAS WEATHER ROUNDUP
NATIONAL WEATHER SERVICE LUBBOCK TX
300 AM CDT WED OCT 01 2014

NOTE: "FAIR" INDICATES FEW OR NO CLOUDS BELOW 12,000 FEET WITH NO
SIGNIFICANT WEATHER AND/OR OBSTRUCTIONS TO VISIBILITY.

TXZ004-006>008-010-012-014-016-OKZ002-010900-
TEXAS PANHANDLE/OKLAHOMA PANHANDLE

CITY           SKY/WX    TMP DP  RH WIND       PRES   REMARKS
AMARILLO       CLEAR     60  44  55 SW10      29.79S
BORGER         CLEAR     65  43  44 SW6       29.74S
CANADIAN       CLEAR     66  61  84 SW6       29.70S
DALHART        CLEAR     54  45  71 W13       29.79S
DUMAS          CLEAR     55  41  60 W12       29.76S
GUYMON         CLEAR     54  43  66 N3        29.73F
HEREFORD       CLEAR     55  51  83 W10       29.83R
PERRYTON       CLEAR     60  47  64 SE7       29.73S
$$

TXZ026-029-035-045-048-010900-
SOUTHERN PANHANDLE/SOUTH PLAINS/ROLLING PLAINS

CITY           SKY/WX    TMP DP  RH WIND       PRES   REMARKS
CHILDRESS      CLEAR     70  62  76 S10       29.72F
SEMINOLE       CLEAR     63  60  88 CALM      29.85R
LUBBOCK        CLEAR     64  54  69 SW10      29.80S
PLAINVIEW      CLEAR     58  53  84 CALM      29.79S
SNYDER         PTCLDY    70  63  78 S10       29.81S
$$

TXZ052-054-060>062-072-078-127-140-154-169-010900-
PERMIAN BASIN/CONCHO VALLEY/BIG COUNTRY/EDWARDS PLATEAU

CITY           SKY/WX    TMP DP  RH WIND       PRES   REMARKS
ABILENE        CLEAR     77  61  57 S16       29.78S
BIG SPRING     CLEAR     74  64  70 SE10      29.84S
BRADY          CLEAR     70  63  78 SE6       29.82F
JUNCTION       CLEAR     71  64  78 CALM      29.83S
MIDLAND        CLEAR     72  63  73 S8        29.82S
ODESSA         CLEAR     70  63  78 S6        29.83S
SAN ANGELO     PTCLDY    74  62  66 S7        29.80S
SONORA         PTCLDY    72  63  73 S6        29.87S
SWEETWATER     CLEAR     73  61  65 S12       29.84S
WINK           CLEAR     70  64  81 SE7       29.80R
$$

TXZ055-058-074-075-080-082-010900-
FAR WEST/SOUTHWEST MOUNTAINS/TRANS PECOS

CITY           SKY/WX    TMP DP  RH WIND       PRES   REMARKS
ALPINE         PTCLDY    63  55  76 W7        29.98R
DRYDEN           N/A     71  66  84 N8        29.79S
EL PASO        CLEAR     68  38  33 SW5       29.89S
FORT STOCKTON  PTCLDY    69  62  78 S7        29.82S
GUADALUPE PASS CLEAR     63  45  51 SW16      29.97F
MARFA          CLEAR     57  54  88 N6        29.97S
PRESIDIO       FAIR      75  59  57 N9        29.81S
$$

TXZ014-016-019-021>030-083-010900
TEXAS TECH WEST TEXAS MESONET/TEXAS PANHANDLE/NORTHERN SOUTH PLAINS

CITY           SKY/WX    TMP DP  RH WIND       PRES   REMARKS
ABERNATHY 5ENE   N/A     57  53  86 S6        29.82S
AMARILLO 9NNE    N/A     65  41  42 SW10      29.77S
AMARILLO 7SSE    N/A     54  47  78 W9        29.81S
AMHERST 1NE      N/A     55  52  90 E2        29.82S
BOOTLEG 11WNW    N/A     53  39  58 W8        29.87S
CANADIAN 6E      N/A     67  60  75 SE9       29.70S
CAPROCK CYN SP   N/A     71  55  57 SW12      29.76S
CHILDRESS 2NNE   N/A     69  62  76 S12       29.71F
CLARENDON 2WSW   N/A     64  58  82 S10       29.76R
CLAUDE 12SW      N/A     66  47  50 W8        29.78F
FLOYDADA 2NNE    N/A     62  56  80 S7        29.79S
FRIONA 2NE       N/A     55  47  76 W9        29.85S
GOODLETT 3W      N/A     73  60  63 S9        29.70F
HART 3N          N/A     52  49  89 W6        29.81F
HEREFORD 2NW     N/A     52  47  83 W8        29.82S
MCLEAN 1E        N/A     64  60  85 S7        29.73F
MEMPHIS 1NE      N/A     64  61  91 W1        29.72S
OLTON 6S         N/A     55  50  84 S6        29.81S
PALO DURO SP     N/A     61  48  60 W13       29.80S
PAMPA 2E         N/A     58  56  94 SE7       29.76S
PLAINVIEW 1S     N/A     59  54  84 S1        29.80S
SILVERTON 7ESE   N/A     60  53  77 SW9       29.79S
TULIA 2ENE       N/A     60  50  69 W8        29.80S
TURKEY 2WSW      N/A     65  59  81 W9        29.74S
UMBARGER 3NNE    N/A     54  47  77 SW8       29.82R
$$

TXZ033>036-039>041-045>048-010900
TEXAS TECH WEST TEXAS MESONET/SOUTH PLAINS

CITY           SKY/WX    TMP DP  RH WIND       PRES   REMARKS
AIKEN 3WSW       N/A     57  54  88 W5        29.81S
ANDREWS 2NE      N/A     69  62  76 S7        29.84S
BROWNFIELD 2S    N/A     62  57  85 SW7       29.83S
DENVR CTY 7WNW   N/A     59  47  64 S8        29.85R
GAIL 2ESE        N/A     69  63  80 SW3       29.81S
LAMESA 2SE       N/A     64  62  93 S8        29.83S
LEVELLAND 4S     N/A     55  51  87 S2        29.83R
LUBBOCK 3WNW     N/A     65  53  65 S8        29.81S
MORTON 1ENE      N/A     54  51  87 W5        29.83S
ODONNELL 1N      N/A     68  63  83 S9        29.82S
PLAINS 3N        N/A     56  50  80 W6        29.84S
RALLS 1SE        N/A     66  61  85 S8        29.80S
REESE CENTER     N/A     60  55  83 S7        29.82R
SEMINOLE 2NNE    N/A     66  59  78 SW5       29.84S
SLATON 2NE       N/A     67  62  84 S14       29.80S
SNYDER 3E        N/A     70  63  78 S10       29.81S
SUNDOWN 8SW      N/A     54  50  86 W8        29.84R
TAHOKA 3NNE      N/A     67  63  85 S9        29.81S
WOLFFORTH 6SSW   N/A     61  57  87 S9        29.82S
$$

TXZ031-032-036>038-042>044-010900-
TEXAS TECH WEST TEXAS MESONET/ROLLING PLAINS

CITY           SKY/WX    TMP DP  RH WIND       PRES   REMARKS
ASPERMONT 3NE    N/A     73  60  64 S8        29.76R
FLUVANNA 3WNW    N/A     70  62  76 S7        29.82R
GRAHAM 5SSW      N/A     71  62  74 S15       29.79S
GUTHRIE 10WSW    N/A     72  64  75 S14       29.74S
HASKELL 1NW      N/A     74  59  59 SE7       29.75S
JAYTON 1SSE      N/A     72  63  74 SW7       29.77R
KNOX CITY 3NW    N/A     70  58  67 SE7       29.75R
LK A HENRY 1NW   N/A     73  64  72 S7        29.78S
NORTHFIELD 1S    N/A     69  63  80 S9        29.72S
ODELL 4ENE       N/A     74  60  60 SE15      29.72R
PADUCAH 10SW     N/A     67  63  85 S10       29.74S
POST 1NE         N/A     71  63  75 S10       29.79R
RRING SPRGS 3N   N/A     68  64  84 S9        29.76S
SEYMOUR 3NW      N/A     78  59  52 S13       29.74R
SPUR 1W          N/A     68  63  84 S7        29.77S
WEINERT 2NNE     N/A     73  60  63 S7        29.76R
WHITE RVR 6NE    N/A     68  62  79 S9        29.78S
$$

TXZ052-054-060>062-072-078-127-140-154-169-010900-
TEXAS TECH WEST TEXAS MESONET/PERMIAN BASIN/
CONCHO VALLEY/BIG COUNTRY/EDWARDS PLATEAU

CITY           SKY/WX    TMP DP  RH WIND       PRES   REMARKS
COYANOSA 2N      N/A     70  63  79 E7        29.79S
JUNCTION 1SSW    N/A     65  63  93 SW1       29.84S
MERTZON 3NNE     N/A     73  63  70 S9        29.82S
SAN ANGELO 7NW   N/A     73  60  64 S7        29.81S
STRLNG CT 4WSW   N/A     72  62  72 SE5       29.83S
ST LAWRNCE 5SW   N/A     70  62  75 S10       29.83S
SWEETWATR 11SW   N/A     72  62  69 S9        29.84R
WALL 1E          N/A     74  61  64 S8        29.81F
$$

TXZ055-058-074-075-080-082-010900-
TEXAS TECH WEST TEXAS MESONET/FAR WEST/SOUTHWEST MOUNTAINS/TRANS PECOS

CITY           SKY/WX    TMP DP  RH WIND       PRES   REMARKS
PRSMN GAP BBNP   N/A     73  63  70 N6        29.83S
GUADLPE MTN NP   N/A     70  42  36 W18       29.96F
$$


USA.gov is the U.S. government's official web portal to all federal, state and local government web resources and services.